SL-14 R/B, 15100

Orbit data source: Space-Track

SL-14 R/B, 15100 is space debris in LEO originally from a launch on Thu, 05 Jul 1984 UTC launched from the Plesetsk Missile And Space Complex (PKMTR). Debris objects in space refer to the collection of defunct objects orbiting the Earth. Examples of debris include non-operational satellites, rocket bodies, and fragments generated from explosions, collisions, or faulty payload assembly.

Loading next visibility...
Identifier
15100, 1984-072B
Orbit
LEO
Country
Flag of CISCIS
Related business
Manufacturer
Yuzhnoe
Mission
Spacecraft
Bus & Motor
S5M, Unknown motor
Mass
1,600 kg wet, 1,600 kg dry
Launch date (UTC)
1984-07-05 (42 years ago)
Launch vehicle
Unknown
Launch site
Plesetsk Missile And Space Complex (PKMTR)
Object type
Payload
Rocket body
Debris
Shape & HBR
Unknown
Radar Cross Section
Large (>1 m²)

Expand to show TLE details & history
Last TLE update: 9 hours ago

TLE from 9 hours ago
0 SL-14 R/B
1 15100U 84072B   26130.38764553  .00000034  00000-0  16817-4 0  9995
2 15100  82.5298  75.1321 0010952 220.9692 139.0647 13.84555716114246
Epoch: 2026-05-10T09:18Z
TLE epoch observation values (Epoch: 2026-05-10T09:18:12.573Z)
Latitude
0.00001°
Longitude
67.38826°
Altitude
956.741 km
Speed
7.37 km/s
True Right ascension
05h 00m 31s
True Declination
0° 00' 00"
Sunlit
Object was in daylight at epoch
Visualization orbit readout
Latitude
Unknown
Longitude
Unknown
Altitude
Unknown
Speed
Unknown
Apparent Right ascension
Unknown
Apparent Declination
Unknown
Sunlit
N/A
Visualization observer readout
Local Sidereal Time
02:24:22
Azimuth
Unknown
Elevation
Unknown
Doppler factor
Unknown
Orbital elements
Apogee altitude
952.945 km
Perigee altitude
936.904 km
Semi-major axis
7,323.061 km
Eccentricity
0.0011
Inclination
82.5298°
RAAN
75.1321°
Arg. of periapsis
220.9692°
True anomaly
139.14684°
Mean anomaly
139.0647°
Eccentric anomaly
139.10578°
Mean motion
3.46341 °/min
Orbital period
103.94 mins
BSTAR
0.000016817
Loading maneuver chart data...
Computing Atmospheric mass density...
Loading historical data...
Loading historical data...
Loading historical data...
Loading historical data...
Loading historical data...
Loading historical data...
Loading historical data...

Documentation

Showing up to 5 results
|